AO-07 1 07530U 74089B 23278.56105656 -.00000029 00000-0 10604-3 0 9995 2 07530 101.9598 266.0248 0011928 211.7010 259.6751 12.53667652237001 UO-11 1 14781U 84021B 23278.55521905 .00003741 00000-0 44053-3 0 9994 2 14781 97.6714 251.3123 0007686 187.0188 173.0921 14.85356259110524 AO-16 1 20439U 90005D 23278.56328789 .00000445 00000-0 17897-3 0 9990 2 20439 98.8930 271.6749 0009774 237.6168 246.0491 14.33176565760968 LO-19 1 20442U 90005G 23278.53892301 .00000478 00000-0 19041-3 0 9996 2 20442 98.8574 257.4819 0011042 210.5300 149.5241 14.33330976761155 AO-27 1 22825U 93061C 23278.73460399 .00000266 00000-0 11995-3 0 9993 2 22825 98.8295 323.3475 0009527 104.1277 256.0964 14.30355407566364 IO-26 1 22826U 93061D 23278.57008335 .00000302 00000-0 13295-3 0 9990 2 22826 98.8241 323.0421 0010091 91.8654 268.3684 14.30722052566340 FO-29 1 24278U 96046B 23278.51052625 .00000010 00000-0 43747-4 0 9996 2 24278 98.5438 242.0984 0351010 130.6633 232.5584 13.53155480340105 NOAA-15 1 25338U 98030A 23278.85037460 .00000364 00000-0 16925-3 0 9995 2 25338 98.5986 305.9809 0010160 357.2430 2.8692 14.26403333321039 GO-32 1 25397U 98043D 23278.82432856 .00000289 00000-0 14615-3 0 9999 2 25397 98.8825 237.3004 0001724 135.5051 224.6266 14.23919297311292 ISS 1 25544U 98067A 23278.89639682 .00018749 00000-0 33771-3 0 9996 2 25544 51.6403 140.1745 0005144 77.7277 293.5819 15.49823614418962 NO-44 1 26931U 01043C 23278.35362038 .00000542 00000-0 23700-3 0 9997 2 26931 67.0493 272.3504 0007113 257.9578 102.0726 14.30998929149343 SO-50 1 27607U 02058C 23278.42599328 .00002911 00000-0 41387-3 0 9990 2 27607 64.5545 286.8731 0056920 201.1634 158.7115 14.77709896118519 CO-55 1 27844U 03031E 23278.58438999 .00000780 00000-0 36602-3 0 9994 2 27844 98.6808 284.2443 0010113 159.5222 200.6363 14.22900783 51434 CO-57 1 27848U 03031J 23278.84507985 .00000645 00000-0 30935-3 0 9992 2 27848 98.6844 284.8728 0009718 173.7417 186.3883 14.22395053 51281 RS-22 1 27939U 03042A 23278.79050127 .00003310 00000-0 57538-3 0 9990 2 27939 98.2593 66.7072 0013084 143.3056 348.5342 14.68773195 70775 NOAA-18 1 28654U 05018A 23278.81553807 .00000390 00000-0 23272-3 0 9999 2 28654 98.9012 352.6301 0015127 69.1006 291.1784 14.13021763947194 CO-58 1 28895U 05043F 23278.31048114 .00004065 00000-0 74665-3 0 9994 2 28895 98.1688 49.6511 0017318 86.0103 274.3080 14.66137220956947 CO-65 1 32785U 08021C 23278.39849630 .00008826 00000-0 84629-3 0 9996 2 32785 97.7203 242.1333 0014009 95.9359 264.3458 14.93281490837266 AAUSAT2 1 32788U 08021F 23278.38006378 .00022864 00000-0 15443-2 0 9997 2 32788 97.5718 255.5919 0006902 0.1781 359.9448 15.06570822839689 DO-64 1 32789U 08021G 23278.82057064 .00289561 00000-0 35119-2 0 9996 2 32789 97.2894 300.9322 0006869 100.0870 260.1163 15.59636343844576 CO-66 1 32791U 08021J 23278.86532455 .00014065 00000-0 11840-2 0 9995 2 32791 97.6691 247.9553 0013327 50.4528 309.7870 14.98270607838307 RS-30 1 32953U 08025A 23278.86651102 .00000050 00000-0 28819-3 0 9994 2 32953 82.4999 248.2430 0018560 306.1435 53.7927 12.43129929697401 PRISM 1 33493U 09002B 23278.55605848 .00023090 00000-0 14514-2 0 9997 2 33493 98.2417 301.0019 0016106 41.0998 319.1438 15.09142318800375 NOAA-19 1 33591U 09005A 23278.87398675 .00000322 00000-0 19785-3 0 9990 2 33591 99.0878 326.5109 0012910 292.9009 67.0799 14.12834959755577 SRMSAT 1 37841U 11058D 23278.63638696 .00000688 00000-0 23252-3 0 9996 2 37841 19.9716 262.2149 0011934 164.7575 353.1760 14.10954823618420 HRBE 1 37855U 11061F 23278.80927984 .00052088 00000-0 13527-2 0 9999 2 37855 101.7089 303.5457 0104608 59.8890 301.2657 15.33311159653944 RS-40 1 38735U 12041C 23278.54122088 .00000019 00000-0 66274-4 0 9995 2 38735 82.4777 329.2902 0018208 59.1838 301.1031 12.42596618507424 ZACUBE-1 1 39417U 13066B 23278.43796747 .00009344 00000-0 10494-2 0 9999 2 39417 97.6986 236.3698 0051959 285.4246 74.1234 14.85976241533568 Delfi-N3xt 1 39428U 13066N 23278.34217322 .00009085 00000-0 12690-2 0 9990 2 39428 97.8303 199.3429 0107543 194.2326 165.5847 14.73899093528354 GOMX-1 1 39430U 13066Q 23278.78239725 .00005799 00000-0 99632-3 0 9992 2 39430 97.7616 163.4215 0143994 343.9819 15.6854 14.62384109525690 LO-74 1 39440U 13066AA 23278.79102026 .00009753 00000-0 12257-2 0 9998 2 39440 97.7817 224.0348 0075139 28.5875 331.9425 14.80290882531710 AO-73 1 39444U 13066AE 23278.60322051 .00009843 00000-0 10551-2 0 9999 2 39444 97.6850 239.1890 0049805 268.4531 91.0980 14.87928737532056 SPROUT 1 39770U 14029E 23278.81391012 .00055706 00000-0 35997-2 0 9997 2 39770 97.9975 49.8360 0006031 298.2109 61.8508 15.07985484508793 DTUSAT-2 1 40030U 14033W 23278.28509290 .00009577 00000-0 89673-3 0 9999 2 40030 97.9752 220.3500 0008893 292.2564 67.7712 14.94257825504431 EO-80 1 40032U 14033Y 23278.39413554 .00011475 00000-0 10726-2 0 9992 2 40032 97.9746 220.4769 0008486 292.7958 67.2364 14.94276566504424 HODOYOSHI-1 1 40299U 14070B 23278.86219859 .00022011 00000-0 61641-3 0 9993 2 40299 97.1810 338.7784 0008558 234.7983 125.2461 15.36604293495787 GRIFEX 1 40379U 15003D 23278.80352328 .00097486 00000-0 14556-2 0 9992 2 40379 99.0825 243.2225 0060142 244.6401 114.8612 15.52585963480477 XW-2C 1 40906U 15049H 23278.77226892 .00026395 00000-0 91818-3 0 9998 2 40906 97.4954 286.5136 0012782 125.6057 234.6376 15.29609189445280 XW-2D 1 40907U 15049J 23278.82335269 .00030226 00000-0 96730-3 0 9990 2 40907 97.4927 287.4489 0011999 117.9103 242.3355 15.32287624445404 LILACSAT-2 1 40908U 15049K 23278.85538235 .00010821 00000-0 48611-3 0 9996 2 40908 97.5295 281.7302 0014284 156.4782 203.7109 15.21242625444616 XW-2E 1 40909U 15049L 23278.81176637 .00071562 00000-0 13972-2 0 9997 2 40909 97.4481 295.1178 0009565 87.6103 272.6241 15.47185905446193 XW-2F 1 40910U 15049M 23278.86016852 .00068969 00000-0 13840-2 0 9997 2 40910 97.4579 294.4267 0010359 89.6607 270.5830 15.46390418445936 XW-2B 1 40911U 15049N 23278.83746827 .00029715 00000-0 95953-3 0 9999 2 40911 97.4905 287.8259 0011952 119.3635 240.8802 15.32003425445280 DCBB 1 40912U 15049P 23278.78965499 .00127761 00000-0 17895-2 0 9990 2 40912 97.4075 299.5773 0007827 54.1624 306.0356 15.56313985446731 IO-86 1 40931U 15052B 23278.06664980 .00001680 00000-0 14200-3 0 9996 2 40931 6.0008 22.0818 0012677 49.9995 310.1245 14.77389733433516 ChubuSat-2 1 41338U 16012B 23278.54413266 .00008040 00000-0 54645-3 0 9991 2 41338 31.0017 231.7827 0012275 200.3641 159.6506 15.04974262419013 ChubuSat-3 1 41339U 16012C 23278.55245480 .00007393 00000-0 50525-3 0 9997 2 41339 31.0082 229.0921 0012259 207.2909 152.7084 15.04740749419001 Horyu-4 1 41340U 16012D 23278.08045994 .00014309 00000-0 85849-3 0 9997 2 41340 31.0027 195.5970 0011782 266.4870 93.4421 15.09699256419330 e-st@r-II 1 41459U 16025D 23278.81188803 .00065451 00000-0 15039-2 0 9997 2 41459 98.1711 131.8972 0092221 72.1180 289.0094 15.38021871409852 LO-87 1 41557U 16033B 23278.88104691 .00538755 11690-3 15886-2 0 9997 2 41557 97.3847 33.0619 0003156 284.8554 75.2370 15.92619214411005 Lapan A3 1 41603U 16040E 23278.78419684 .00005306 00000-0 22735-3 0 9990 2 41603 97.1614 299.2505 0010686 288.7184 71.2893 15.23120549404320 Pratham 1 41783U 16059A 23278.60362576 .00001564 00000-0 30344-3 0 9994 2 41783 97.8618 304.7787 0034286 110.1666 250.3230 14.64178140375134 TY-1 1 41844U 16066D 23278.79295422 .00333592 00000-0 19555-2 0 9994 2 41844 97.3544 302.6009 0003458 51.2031 308.9543 15.77375836384950 CAS-2T 1 41847U 16066G 23278.44944733 .00003323 00000-0 50078-3 0 9997 2 41847 98.4931 346.4490 0357545 226.3605 130.7420 14.40082990362671 CAS-4B 1 42759U 17034B 23278.89873555 .00019343 00000-0 89781-3 0 9990 2 42759 43.0137 219.2883 0009788 102.6821 257.5123 15.19659288348466 CAS-4A 1 42761U 17034D 23278.84849487 .00019441 00000-0 90156-3 0 9992 2 42761 43.0137 218.0831 0010282 103.8429 256.3565 15.19683518348467 NIUSat 1 42766U 17036B 23278.59807477 .00064266 00000-0 12723-2 0 9992 2 42766 97.1470 307.8695 0010077 68.5171 291.7153 15.46807665349637 Aalto 1 1 42775U 17036L 23278.63181675 .00042009 00000-0 10339-2 0 9994 2 42775 97.1434 305.7740 0010704 72.2718 287.9696 15.40429380349492 URSA MAIOR 1 42776U 17036M 23278.59188840 .00047985 00000-0 10728-2 0 9991 2 42776 97.1440 307.4655 0010044 68.9036 291.3285 15.43299740349587 Max Valier Sat 1 42778U 17036P 23278.63695999 .00049297 00000-0 10396-2 0 9995 2 42778 97.1423 311.2368 0008675 70.0970 290.1214 15.45038567349749 Pegasus 1 42784U 17036V 23278.86118062 .00123937 00000-0 14788-2 0 9991 2 42784 97.1339 315.7353 0005542 62.2818 297.9001 15.60624230350150 SKCUBE 1 42789U 17036AA 23278.86612587 .00267065 00000-0 18179-2 0 9996 2 42789 97.1256 319.1015 0003099 63.8099 296.3485 15.74115508350370 VENTA 1 1 42791U 17036AC 23278.66301279 .00132989 00000-0 15635-2 0 9990 2 42791 97.1336 316.7925 0004845 65.9757 294.2008 15.60985476350180 Robusta 1B 1 42792U 17036AD 23278.64403297 .00727476 22080-3 21141-2 0 9997 2 42792 97.1176 321.2759 0001090 204.3043 155.8181 15.92931666350513 D-SAT 1 42794U 17036AF 23278.48446472 .00008825 00000-0 68016-3 0 9991 2 42794 97.4746 265.5384 0112628 290.9947 67.9256 14.96890613342425 TechnoSat 1 42829U 17042E 23278.57180027 .00005139 00000-0 48268-3 0 9990 2 42829 97.3855 109.4452 0012246 209.2889 150.7647 14.94288964338977 AO-91 1 43017U 17073E 23278.61769041 .00014460 00000-0 97261-3 0 9992 2 43017 97.6109 158.6146 0229654 64.2983 298.1753 14.87744708317590 AO-92 1 43137U 18004AC 23278.22154547 .00107150 00000-0 14612-2 0 9993 2 43137 97.3166 359.2968 0004030 104.0058 256.1646 15.57135623319369 TianYi 2 1 43155U 18008A 23278.87170573 .00040931 00000-0 13772-2 0 9994 2 43155 97.2847 329.0085 0009949 275.1035 84.9070 15.30626454315551 Zhou Enlai 1 43156U 18008B 23278.88751475 .00047390 00000-0 15376-2 0 9990 2 43156 97.2895 329.3459 0007699 275.2877 84.7486 15.31783900315491 TianYi 6 1 43158U 18008D 23278.70705795 .00035159 00000-0 13172-2 0 9999 2 43158 97.2924 325.5043 0007972 283.4314 76.6037 15.27157868315264 S-Net D 1 43186U 18014G 23278.58771488 .00007799 00000-0 60793-3 0 9996 2 43186 97.6099 180.2486 0014447 152.1065 208.0937 15.01379379310113 S-Net B 1 43187U 18014H 23278.32260165 .00007865 00000-0 61308-3 0 9991 2 43187 97.6105 179.9158 0014720 150.6472 209.5583 15.01373001310076 S-Net A 1 43188U 18014J 23278.52247182 .00007881 00000-0 61420-3 0 9991 2 43188 97.6109 180.2070 0014758 150.2022 210.0046 15.01378586310105 S-Net C 1 43189U 18014K 23278.25862926 .00007887 00000-0 61468-3 0 9999 2 43189 97.6124 179.8385 0015343 146.0503 214.1707 15.01372192308613 CubeBel-1 1 43666U 18083E 23278.77368992 .00092134 00000-0 17741-2 0 9999 2 43666 97.3695 311.6164 0009331 86.6413 273.5905 15.47506757274249 Changshagaoxin 1 43669U 18083H 23278.86169029 .00057704 00000-0 13575-2 0 9997 2 43669 97.3710 305.6017 0008368 89.4608 270.7598 15.41743210273951 Ten-Koh 1 43677U 18084G 23278.57269242 .00005537 00000-0 52726-3 0 9992 2 43677 98.0301 60.6383 0015533 140.3255 219.9104 14.93731424268531 PO-101 1 43678U 18084H 23278.85994400 .00003112 00000-0 29826-3 0 9997 2 43678 98.0395 65.1971 0009921 149.9043 210.2748 14.93872170268781 QO-100 1 43700U 18090A 23278.66077351 .00000135 00000-0 00000+0 0 9997 2 43700 0.0141 234.3326 0001376 328.4614 75.0053 1.00265918 18034 Reaktor Hello World 1 43743U 18096AA 23278.52061226 .00480044 88921-4 16339-2 0 9997 2 43743 97.3025 10.3705 0002964 198.6892 161.4272 15.89801651271477 MinXSS-2 1 43758U 18099A 23278.62071922 .00013886 00000-0 10236-2 0 9995 2 43758 97.5919 340.5425 0020782 108.2855 252.0634 15.03247875264321 AO-95 1 43770U 18099N 23278.12701990 .00010722 00000-0 83693-3 0 9993 2 43770 97.5758 336.7966 0015259 140.8052 219.4280 15.01221634264098 RANGE-B 1 43772U 18099Q 23278.59211323 .00016712 00000-0 12323-2 0 9998 2 43772 97.5614 340.2810 0006534 69.8908 290.3020 15.03351886264247 RANGE-A 1 43773U 18099R 23278.41786177 .00007481 00000-0 61462-3 0 9996 2 43773 97.5497 334.7170 0012521 108.5664 251.6920 14.99391568264072 MOVE-II 1 43780U 18099Y 23278.41437640 .00022607 00000-0 15385-2 0 9991 2 43780 97.5586 340.2201 0009487 133.1581 227.0441 15.06275058264311 SNUSat 2 1 43782U 18099AA 23278.10574662 .00009780 00000-0 76970-3 0 9990 2 43782 97.5560 337.1683 0017345 75.6837 284.6312 15.00903387264111 SnugLite 1 43784U 18099AC 23278.41096739 .00010582 00000-0 81999-3 0 9999 2 43784 97.5364 337.0973 0009308 104.2681 255.9578 15.01557095264209 ITASat 1 1 43786U 18099AE 23278.42868753 .00009636 00000-0 76401-3 0 9995 2 43786 97.5574 338.0198 0019618 121.6760 238.6380 15.00589085264178 EAGLET 1 1 43790U 18099AJ 23278.44191449 .00007489 00000-0 60594-3 0 9993 2 43790 97.5602 338.4115 0015708 117.8238 242.4580 14.99946291263909 ESEO 1 43792U 18099AL 23278.58569775 .00004682 00000-0 39907-3 0 9997 2 43792 97.5576 336.6755 0014684 110.7247 249.5551 14.98134846263916 CSIM 1 43793U 18099AM 23278.61347653 .00021382 00000-0 14399-2 0 9994 2 43793 97.5641 341.8796 0016491 110.9433 249.3561 15.06603354264195 Astrocast 0.1 1 43798U 18099AS 23278.60939472 .00018197 00000-0 12881-2 0 9998 2 43798 97.5716 341.0675 0012651 90.7506 269.5170 15.04823694264369 JO-97 1 43803U 18099AX 23278.73887436 .00012100 00000-0 91812-3 0 9991 2 43803 97.5565 338.5547 0012454 91.3527 268.9125 15.02297858264287 Suomi 100 1 43804U 18099AY 23278.42925485 .00011811 00000-0 90270-3 0 9990 2 43804 97.5694 338.0273 0020204 95.7409 264.6120 15.01926748264230 Al Farabi 2 1 43805U 18099AZ 23278.16456092 .00016263 00000-0 11734-2 0 9998 2 43805 97.5498 338.9059 0014238 90.1850 270.1008 15.04112979264270 CHOMPTT 1 43855U 18104G 23278.46053942 .00060945 00000-0 11950-2 0 9996 2 43855 85.0232 90.7607 0008963 262.6193 97.4044 15.47081708267588 ISAT 1 43879U 18111D 23278.53047224 .00014794 00000-0 10670-2 0 9993 2 43879 97.6326 181.4964 0015769 141.2567 218.9793 15.04132202260910 UWE-4 1 43880U 18111E 23278.67824719 .00013802 00000-0 10038-2 0 9999 2 43880 97.6229 182.1868 0018882 152.7237 207.4984 15.03789120258968 Sparrow 1 43881U 18111F 23278.24426654 .00014630 00000-0 10462-2 0 9990 2 43881 97.6364 182.7005 0010605 182.1862 177.9319 15.04512789260922 Lume 1 1 43908U 18111AJ 23278.60735304 .00095442 00000-0 13154-2 0 9996 2 43908 97.1158 160.8130 0011703 141.0660 219.1440 15.56823166266509 FO-99 1 43937U 19003F 23278.83088324 .00284501 00000-0 17902-2 0 9998 2 43937 97.0707 305.9967 0007413 199.3843 160.7143 15.75867825263310 AstroCast 0.2 1 44083U 19018F 23278.72218221 .00357453 00000-0 25142-2 0 9998 2 44083 97.2472 340.7326 0004324 204.9308 155.1748 15.73085885251634 AISTechSat 3 1 44103U 19018AB 23278.75072078 .00069134 00000-0 12790-2 0 9993 2 44103 97.2378 336.8872 0006811 219.3596 140.7161 15.48775847251574 AISat 1 1 44104U 19018AC 23278.57539801 .00050687 00000-0 80139-3 0 9992 2 44104 97.3718 12.3382 0034842 212.6830 147.2267 15.52603328252814 Prox-1 1 44339U 19036A 23278.74229335 .00015344 00000-0 30134-2 0 9999 2 44339 24.0013 60.8678 0010230 45.7100 314.4231 14.61055435227860 Move-IIb 1 44398U 19038N 23278.77372831 .00212513 00000-0 26527-2 0 9997 2 44398 97.6666 268.1598 0005875 205.0340 155.0631 15.59131133235775 SONATE 1 44400U 19038Q 23278.51637139 .00022630 00000-0 93234-3 0 9997 2 44400 97.6963 258.6959 0017134 289.3302 70.6082 15.23974383235021 BeeSat 9 1 44412U 19038AC 23278.40215153 .00059167 00000-0 16406-2 0 9996 2 44412 97.6836 263.2054 0009678 272.5867 87.4268 15.36684995235040 JAISAT-1 1 44419U 19038F 23278.52792190 .00057119 00000-0 15737-2 0 9998 2 44419 97.6826 264.4574 0009210 266.8208 93.1982 15.36898917235445 Taurus 1 1 44530U 19059C 23278.78453672 .00011385 00000-0 28688-2 0 9996 2 44530 98.5604 28.4041 0013599 116.3622 243.8970 14.51225798214674 Duchifat 3 1 44854U 19089C 23278.77434719 .00017452 00000-0 11020-2 0 9991 2 44854 36.9597 149.3913 0005976 157.2177 202.8833 15.08397612209529 OPS-SAT 1 44878U 19092F 23278.51821889 .00042757 00000-0 10376-2 0 9990 2 44878 97.4706 109.1454 0008607 96.2233 263.9994 15.40875527210746 TO-108 1 44881U 19093C 23278.84079933 .00002317 00000-0 29219-3 0 9991 2 44881 97.8534 355.3852 0016017 78.6575 281.6437 14.82828215205196 FloripaSat 1 1 44885U 19093G 23278.75998389 .00008686 00000-0 97789-3 0 9992 2 44885 97.8611 358.7297 0014568 79.3526 280.9329 14.86812977205373 RS-44 1 44909U 19096E 23278.45823205 .00000030 00000-0 85133-4 0 9999 2 44909 82.5161 274.6680 0216319 289.2803 68.5014 12.79723149176269 BY70-2 1 45857U 20042B 23278.88009010 .00046322 00000-0 41371-2 0 9990 2 45857 97.9179 359.5022 0007345 0.6289 359.4940 14.95724296176055 UPMSat 2 1 46276U 20061E 23278.49200082 .00018364 00000-0 72313-3 0 9992 2 46276 97.3345 343.8586 0000724 43.2254 316.9041 15.25664556171095 AmicalSat 1 46287U 20061R 23278.43224023 .00027670 00000-0 11658-2 0 9993 2 46287 97.3876 343.0244 0003235 80.2237 279.9365 15.23301023170474 SALSAT 1 46495U 20068K 23278.58083447 .00009730 00000-0 61820-3 0 9994 2 46495 97.7809 227.8927 0017243 102.9036 257.4119 15.08937594165715 CAPE 3 1 47309U 21002A 23278.67677304 .00092999 00000-0 15358-2 0 9992 2 47309 60.6741 350.9865 0020579 2.0628 358.0554 15.51433287151361 AO-109 1 47311U 21002C 23278.52611372 .00065618 00000-0 13014-2 0 9997 2 47311 60.6794 352.2882 0017791 3.2670 356.8541 15.46416816151307 ExoCube 2 1 47319U 21002L 23278.52656804 .00061198 00000-0 12613-2 0 9997 2 47319 60.6773 355.0086 0018431 1.9304 358.1861 15.45310701151226 UVSQ-SAT 1 47438U 21006AB 23278.70461841 .00035380 00000-0 12747-2 0 9990 2 47438 97.3708 334.4294 0009951 58.6273 301.5939 15.28428527149509 YUSAT 1 1 47439U 21006AC 23278.57317941 .00048259 00000-0 15400-2 0 9995 2 47439 97.3713 335.5779 0008950 56.0841 304.1250 15.32302708149565 SOMP 2b 1 47445U 21006AJ 23278.16290027 .00033954 00000-0 12596-2 0 9991 2 47445 97.3676 332.9609 0010074 65.1418 295.0867 15.27473302149389 IDEASSat 1 47458U 21006AX 23278.39316201 .00030568 00000-0 11663-2 0 9995 2 47458 97.3770 333.9888 0009457 64.7293 295.4925 15.26570894149390 CubeSX-Sirius-HSE 1 47951U 21022V 23278.87590727 .00021442 00000-0 11172-2 0 9997 2 47951 97.4807 174.5106 0016327 317.3435 42.6529 15.15893942139785 CubeSX-HSE 1 47952U 21022W 23278.84417233 .00020469 00000-0 10648-2 0 9990 2 47952 97.4811 174.5371 0016086 317.2810 42.7171 15.15963903139782 KSU-Cubesat 1 47954U 21022Y 23278.69170117 .00024916 00000-0 12526-2 0 9990 2 47954 97.4815 174.9374 0015355 316.1611 43.8402 15.17134456139515 GRBAlpha 1 47959U 21022AD 23278.75862869 .00021854 00000-0 11336-2 0 9990 2 47959 97.4812 174.5549 0015978 317.8622 42.1381 15.16051552138597 Orbicraft-Zorkiy 1 47960U 21022AE 23278.85656764 .00022951 00000-0 11596-2 0 9995 2 47960 97.4849 175.2558 0015532 315.8670 44.1323 15.16973940139328 STECCO 1 47962U 21022AG 23278.75164911 .00050549 00000-0 19943-2 0 9992 2 47962 97.4816 178.6496 0008845 302.8779 57.1607 15.25341927138868 MO-110 1 47964U 21022AJ 23278.27417333 .00053270 00000-0 20333-2 0 9999 2 47964 97.4833 178.9479 0010345 296.9730 63.0451 15.26417230138833 FEES 1 48082U 21022AL 23278.46203761 .00115607 00000-0 30217-2 0 9995 2 48082 97.4806 181.8048 0003780 282.4133 77.6688 15.38306281138741 TUBIN 1 48900U 21059X 23278.65477762 .00019587 00000-0 86711-3 0 9990 2 48900 97.6149 53.2175 0007663 256.1214 103.9169 15.21671528125965 IT-SPINS 1 49017U 21013G 23278.32503334 .00101414 00000-0 16286-2 0 9999 2 49017 51.5874 255.2801 0007587 38.4406 321.7123 15.52186672126751 LEDSAT 1 49069U 21073D 23278.74005809 .00019710 00000-0 10086-2 0 9991 2 49069 97.4715 347.8374 0024229 97.4258 262.9729 15.16403922117642 CUTE 1 49263U 21088D 23278.44691188 .00020152 00000-0 12064-2 0 9991 2 49263 97.5327 342.4399 0015747 241.2176 118.7473 15.10945670110922 TeikyoSat 4 1 49396U 21102B 23278.55225310 .00004732 00000-0 35754-3 0 9995 2 49396 97.5010 327.0858 0014541 68.3694 291.9079 15.02752686104340 Z-Sat 1 49399U 21102E 23278.83583625 .00007037 00000-0 48815-3 0 9998 2 49399 97.4711 328.5221 0022603 54.5444 305.7889 15.05683650104539 KOSEN 1 1 49402U 21102H 23278.83796890 .00009214 00000-0 60391-3 0 9995 2 49402 97.4640 329.2448 0021250 42.8253 317.4625 15.07729218104620 HO-113 1 50466U 21131B 23278.86591057 .00001264 00000-0 42296-3 0 9991 2 50466 98.5462 0.0476 0004712 156.5753 203.5650 14.39091867 93270 Tevel-3 1 50988U 22002E 23278.82618260 .00044452 00000-0 15036-2 0 9997 2 50988 97.4207 345.3467 0006799 193.5144 166.5915 15.30461130 95653 Tevel-8 1 50989U 22002F 23278.71932690 .00047983 00000-0 16263-2 0 9997 2 50989 97.4225 345.3108 0006767 193.0460 167.0607 15.30376771 95635 Tevel-5 1 50998U 22002Q 23278.83425730 .00046614 00000-0 15237-2 0 9992 2 50998 97.4201 345.8866 0007844 188.8560 171.2544 15.31547973 95693 Tevel-6 1 50999U 22002R 23278.83293108 .00046501 00000-0 15204-2 0 9994 2 50999 97.4200 345.8774 0007889 188.7174 171.3931 15.31540248 95699 Tevel-1 1 51013U 22002AF 23278.83978480 .00044159 00000-0 14964-2 0 9994 2 51013 97.4199 345.2829 0006715 192.8264 167.2807 15.30404554 95652 NO-116 1 51031U 22002AZ 23278.44231023 .00117305 00000-0 25463-2 0 9996 2 51031 97.4310 349.7432 0007535 190.5882 169.5208 15.43907211 95841 IRIS-A 1 51044U 22002BN 23278.43602455 .00021104 00000-0 92855-3 0 9991 2 51044 97.4224 342.3114 0007185 203.7966 156.2939 15.21865577 95417 Tevel-7 1 51062U 22002CG 23278.84934829 .00045337 00000-0 15354-2 0 9991 2 51062 97.4220 345.4113 0006783 192.1222 167.9856 15.30416765 95659 Tevel-4 1 51063U 22002CH 23278.86012429 .00045358 00000-0 15399-2 0 9999 2 51063 97.4217 345.3919 0006799 192.0221 168.0859 15.30336665 95659 Tevel-2 1 51069U 22002CP 23278.82753028 .00044472 00000-0 15038-2 0 9994 2 51069 97.4205 345.3164 0006755 193.4477 166.6585 15.30471200 95659 DELFI-PQ 1 51074U 22002CU 23278.47672565 .00146193 00000-0 25929-2 0 9990 2 51074 97.4450 353.0925 0007590 212.2634 147.8154 15.49678683 95995 SO-115 1 51080U 22002DA 23278.14380024 .00056319 00000-0 16376-2 0 9993 2 51080 97.4490 349.5339 0008715 222.6149 137.4419 15.35219316 95720 SO-114 1 51081U 22002DB 23278.18090046 .00062015 00000-0 17836-2 0 9992 2 51081 97.4479 349.5682 0008979 222.8566 137.1978 15.35533499 95735 OreSat0 1 52017U 22026K 23278.53066998 .00039436 00000-0 13674-2 0 9993 2 52017 97.5122 281.5987 0022310 59.8276 300.5170 15.29464993 86381 Planetum 1 1 52738U 22057G 23278.60583340 .00032973 00000-0 13585-2 0 9990 2 52738 97.5470 34.8482 0006052 328.7273 31.3604 15.24009668 75452 Foresail-1 1 52766U 22057AL 23278.81455029 .00021845 00000-0 95717-3 0 9990 2 52766 97.5599 35.9008 0010635 307.6968 52.3302 15.21974173 75491 SNUGLITE 2 1 52899U 22065F 23278.66810070 .00002993 00000-0 63782-3 0 9990 2 52899 98.0853 60.5594 0007040 225.2299 134.8329 14.59649625 66978 CTIM 1 52950U 22074G 23278.47816982 .00164811 00000-0 19533-2 0 9997 2 52950 44.9969 96.6005 0014948 249.7128 110.2161 15.59860793 70719 IO-117 1 53106U 22080B 23276.06829093 -.00000003 00000-0 00000-0 0 9998 2 53106 70.1395 282.2281 0008443 166.2744 193.8146 6.42557263 28682 AstroBioCubeSat 1 53107U 22080C 23025.30817895 -.00000003 00000-0 00000-0 0 9995 2 53107 70.1710 9.4734 0013545 210.3158 149.6718 6.42110537 12478 SelfieSat 1 53951U 22057BC 23278.28568988 .00044651 00000-0 16878-2 0 9997 2 53951 97.5515 35.5954 0007667 317.5403 42.5241 15.26809463 75450 FO-118 1 54684U 22167C 23278.87757371 .00024731 00000-0 12457-2 0 9990 2 54684 97.5769 56.0133 0012219 315.1353 44.8891 15.17107730 45449 SSS-2B 1 56184U 23054G 23278.86303597 .00028196 00000-0 10947-2 0 9990 2 56184 97.3932 172.4421 0010707 19.6387 340.5262 15.25996919 27039 CIRBE 1 56188U 23054L 23278.26264388 .00039344 00000-0 14655-2 0 9999 2 56188 97.3892 171.9145 0009392 16.6413 343.5132 15.27312806 26958 INSPIRE-Sat 7 1 56211U 23054AK 23278.26666255 .00043199 00000-0 15079-2 0 9999 2 56211 97.3906 172.4200 0012672 355.3643 4.7477 15.29389617 26989 RoseyCubesat 1 1 56212U 23054AL 23278.82162921 .00042581 00000-0 14594-2 0 9998 2 56212 97.3915 173.0647 0012691 353.1395 6.9670 15.29988991 27073 ARKSAT 1 1 56311U 98067VC 23278.79297598 .00395395 00000-0 16669-2 0 9998 2 56311 51.6282 125.2033 0007261 201.0758 158.9947 15.83803265 25705 AuroraSat 1 56312U 98067VD 23278.81826942 .01696374 20654-2 20341-2 0 9996 2 56312 51.6188 120.7721 0009840 245.6177 114.3809 16.08050193 25793 Ex-Alta 2 1 56313U 98067VE 23278.65193839 .00412713 00000-0 16632-2 0 9992 2 56313 51.6238 125.7286 0007458 202.5938 157.4738 15.84705920 25709 LightCube 1 56314U 98067VF 23278.78863895 .00998883 49240-3 19790-2 0 9990 2 56314 51.6208 122.0963 0008199 230.9110 129.1171 15.99350546 25791 NEUDOSE 1 56315U 98067VG 23278.77571946 .00194112 00000-0 13914-2 0 9996 2 56315 51.6298 129.6103 0006637 169.7510 190.3625 15.72528756 25647 YukonSat 1 56316U 98067VH 23278.64899432 .00265347 00000-0 14847-2 0 9991 2 56316 51.6296 127.9976 0006715 177.5543 182.5491 15.77999808 25677 URESAT-1 1 56992U 23084BU 23278.81520245 .00025712 00000-0 13828-2 0 9998 2 56992 97.5145 33.6674 0017298 194.4583 165.6157 15.14719400 17375 MRC-100 1 56993U 23084BV 23278.81191116 .00032159 00000-0 17179-2 0 9996 2 56993 97.5154 33.6815 0017298 195.1594 164.9122 15.14909533 17386 UmKA 1 (RS40S) 1 57172U 23091G 23278.89248989 .00008593 00000-0 62069-3 0 9997 2 57172 97.6525 328.6083 0016804 269.7873 90.1428 15.04211819 15078 CubeBel-2 (EU11S) 1 57175U 23091K 23278.86133823 .00009605 00000-0 70044-3 0 9994 2 57175 97.6530 328.4910 0014404 283.3383 76.6236 15.03848729 15066 /EX